N55BS LRIA-LROP

Flight info

Callsign N55BS
Flight time 0h 38m
Altitude 10000
Route ABOLO2B ABOLO T74 DENAK DENAK2X
Aircraft C700/M-VGD/A

Departure

Time 2026-04-24 14:45
Airport Iaşi International Airport (LRIA)

Arrival

Time 2026-04-24 15:24
Airport Bucharest Henri Coandă International Airport (LROP)
Time Latitude Longitude Altitude Speed Heading
2026-04-24 14:24 47.17738 27.61836 372 ft 0 kts 246°
2026-04-24 14:39 47.17744 27.61856 372 ft 4 kts 184°
2026-04-24 14:39 47.17755 27.61844 372 ft 4 kts 141°
2026-04-24 14:40 47.17766 27.61832 373 ft 1 kts 152°
2026-04-24 14:40 47.17768 27.61831 373 ft 0 kts 152°
2026-04-24 14:42 47.17766 27.61832 373 ft 1 kts 152°
2026-04-24 14:42 47.17750 27.61903 372 ft 14 kts 85°
2026-04-24 14:43 47.17802 27.62060 370 ft 22 kts 63°
2026-04-24 14:43 47.17819 27.62288 366 ft 21 kts 135°
2026-04-24 14:43 47.17674 27.62407 363 ft 26 kts 152°
2026-04-24 14:43 47.17491 27.62562 361 ft 34 kts 149°
2026-04-24 14:44 47.17263 27.62766 351 ft 38 kts 148°
2026-04-24 14:44 47.17160 27.62924 349 ft 12 kts 135°
2026-04-24 14:44 47.17114 27.62905 345 ft 10 kts 275°
2026-04-24 14:44 47.17194 27.62823 354 ft 20 kts 328°
2026-04-24 14:45 47.17382 27.62657 355 ft 45 kts 329°
2026-04-24 14:45 47.17775 27.62311 365 ft 100 kts 328°
2026-04-24 14:45 47.18577 27.61636 663 ft 158 kts 332°
2026-04-24 14:45 47.19711 27.60798 1437 ft 204 kts 335°
2026-04-24 14:46 47.21090 27.59816 2501 ft 235 kts 333°
2026-04-24 14:46 47.22613 27.58634 3787 ft 259 kts 330°
2026-04-24 14:46 47.24209 27.57215 5153 ft 272 kts 321°
2026-04-24 14:46 47.25279 27.55122 6383 ft 248 kts 298°
2026-04-24 14:47 47.25681 27.52755 7418 ft 239 kts 278°
2026-04-24 14:47 47.25435 27.50326 8474 ft 244 kts 257°
2026-04-24 14:47 47.24531 27.48150 9517 ft 257 kts 234°
2026-04-24 14:47 47.23002 27.46539 9991 ft 291 kts 208°
2026-04-24 14:48 47.20980 27.46145 10008 ft 298 kts 180°
2026-04-24 14:48 47.18947 27.46578 10008 ft 294 kts 174°
2026-04-24 14:48 47.16938 27.47090 10007 ft 293 kts 175°
2026-04-24 14:48 47.14921 27.47131 9999 ft 288 kts 192°
2026-04-24 14:49 47.12994 27.46447 9998 ft 284 kts 207°
2026-04-24 14:49 47.11186 27.45046 10010 ft 306 kts 221°
2026-04-24 14:49 47.09385 27.43117 10016 ft 337 kts 222°
2026-04-24 14:49 47.07400 27.41006 10011 ft 365 kts 221°
2026-04-24 14:50 47.05309 27.38836 10007 ft 371 kts 220°
2026-04-24 14:50 47.03191 27.36637 10002 ft 375 kts 221°
2026-04-24 14:50 47.01094 27.34428 10005 ft 375 kts 221°
2026-04-24 14:50 46.98981 27.32204 10001 ft 374 kts 221°
2026-04-24 14:51 46.96860 27.29984 10003 ft 376 kts 221°
2026-04-24 14:51 46.94730 27.27763 10002 ft 375 kts 221°
2026-04-24 14:51 46.92609 27.25549 10002 ft 374 kts 221°
2026-04-24 14:51 46.90490 27.23335 10001 ft 374 kts 221°
2026-04-24 14:52 46.88365 27.21118 10006 ft 376 kts 221°
2026-04-24 14:52 46.86237 27.18899 9989 ft 375 kts 220°
2026-04-24 14:52 46.84116 27.16689 9996 ft 375 kts 220°
2026-04-24 14:52 46.81997 27.14481 9995 ft 373 kts 220°
2026-04-24 14:53 46.79878 27.12275 10001 ft 375 kts 220°
2026-04-24 14:53 46.77751 27.10062 10000 ft 375 kts 221°
2026-04-24 14:53 46.75627 27.07858 10000 ft 373 kts 220°
2026-04-24 14:53 46.73512 27.05664 10000 ft 375 kts 220°
2026-04-24 14:54 46.71382 27.03456 9998 ft 376 kts 220°
2026-04-24 14:54 46.69249 27.01252 10000 ft 375 kts 220°
2026-04-24 14:54 46.67127 26.99059 10000 ft 372 kts 219°
2026-04-24 14:54 46.65024 26.96889 9997 ft 370 kts 219°
2026-04-24 14:55 46.63632 26.95453 9998 ft 371 kts 219°
2026-04-24 14:55 46.60802 26.92532 10006 ft 373 kts 219°
2026-04-24 14:55 46.58685 26.90355 10001 ft 372 kts 219°
2026-04-24 14:55 46.56572 26.88183 10004 ft 372 kts 219°
2026-04-24 14:56 46.54464 26.86017 9997 ft 371 kts 219°
2026-04-24 14:56 46.52315 26.83939 9995 ft 373 kts 213°
2026-04-24 14:56 46.49918 26.82432 10000 ft 378 kts 202°
2026-04-24 14:56 46.47354 26.81550 10000 ft 379 kts 193°
2026-04-24 14:57 46.44757 26.80887 10001 ft 380 kts 194°
2026-04-24 14:57 46.42154 26.80192 9999 ft 380 kts 194°
2026-04-24 14:57 46.39550 26.79498 9993 ft 380 kts 194°
2026-04-24 14:57 46.36949 26.78808 9991 ft 380 kts 194°
2026-04-24 14:58 46.34348 26.78126 9995 ft 380 kts 194°
2026-04-24 14:58 46.31746 26.77442 9997 ft 380 kts 194°
2026-04-24 14:58 46.29143 26.76758 9979 ft 380 kts 193°
2026-04-24 14:58 46.26541 26.76070 9988 ft 381 kts 193°
2026-04-24 14:59 46.23929 26.75383 9993 ft 381 kts 193°
2026-04-24 14:59 46.21320 26.74696 9991 ft 381 kts 193°
2026-04-24 14:59 46.18717 26.74011 9989 ft 380 kts 193°
2026-04-24 14:59 46.16115 26.73327 9993 ft 381 kts 193°
2026-04-24 15:00 46.13501 26.72642 9987 ft 381 kts 193°
2026-04-24 15:00 46.10889 26.71957 9988 ft 382 kts 193°
2026-04-24 15:00 46.08272 26.71271 9979 ft 382 kts 193°
2026-04-24 15:00 46.05647 26.70583 9992 ft 393 kts 194°
2026-04-24 15:01 46.02936 26.69873 10000 ft 388 kts 193°
2026-04-24 15:01 46.00292 26.69187 9999 ft 385 kts 193°
2026-04-24 15:01 45.97689 26.68511 10000 ft 385 kts 193°
2026-04-24 15:01 45.95058 26.67823 10001 ft 384 kts 193°
2026-04-24 15:02 45.92390 26.67127 10000 ft 387 kts 193°
2026-04-24 15:02 45.89743 26.66439 9998 ft 386 kts 193°
2026-04-24 15:02 45.87129 26.65763 9981 ft 387 kts 193°
2026-04-24 15:02 45.84463 26.65071 9988 ft 390 kts 192°
2026-04-24 15:03 45.81815 26.64389 9992 ft 389 kts 193°
2026-04-24 15:03 45.79151 26.63703 9996 ft 385 kts 193°
2026-04-24 15:03 45.76501 26.63004 9994 ft 385 kts 193°
2026-04-24 15:03 45.73853 26.62314 9995 ft 390 kts 193°
2026-04-24 15:04 45.71206 26.61646 10002 ft 387 kts 193°
2026-04-24 15:04 45.68527 26.60956 9995 ft 393 kts 193°
2026-04-24 15:04 45.65850 26.60259 9994 ft 387 kts 192°
2026-04-24 15:04 45.63202 26.59580 9991 ft 391 kts 193°
2026-04-24 15:05 45.60540 26.58900 9983 ft 383 kts 192°
2026-04-24 15:05 45.57908 26.58226 9985 ft 391 kts 193°
2026-04-24 15:05 45.55235 26.57530 9992 ft 391 kts 193°
2026-04-24 15:05 45.52580 26.56847 9993 ft 391 kts 193°
2026-04-24 15:06 45.49900 26.56171 9992 ft 391 kts 193°
2026-04-24 15:06 45.47218 26.55490 9996 ft 388 kts 193°
2026-04-24 15:06 45.44585 26.54810 9994 ft 382 kts 193°
2026-04-24 15:06 45.41992 26.54137 9988 ft 377 kts 192°
2026-04-24 15:07 45.39406 26.53491 9987 ft 378 kts 192°
2026-04-24 15:07 45.36803 26.52832 9984 ft 381 kts 192°
2026-04-24 15:07 45.34213 26.52165 9986 ft 378 kts 193°
2026-04-24 15:07 45.31603 26.51498 9987 ft 382 kts 193°
2026-04-24 15:08 45.29003 26.50839 9990 ft 378 kts 192°
2026-04-24 15:08 45.26413 26.50185 9977 ft 381 kts 193°
2026-04-24 15:08 45.23806 26.49522 9984 ft 380 kts 193°
2026-04-24 15:08 45.21198 26.48861 9984 ft 382 kts 193°
2026-04-24 15:09 45.18586 26.48207 9981 ft 380 kts 193°
2026-04-24 15:09 45.15990 26.47547 9976 ft 379 kts 193°
2026-04-24 15:09 45.13384 26.46880 9981 ft 381 kts 193°
2026-04-24 15:09 45.10787 26.46227 9975 ft 378 kts 192°
2026-04-24 15:10 45.08193 26.45581 9975 ft 380 kts 193°
2026-04-24 15:10 45.05586 26.44927 9973 ft 379 kts 192°
2026-04-24 15:10 45.02981 26.44374 9971 ft 378 kts 186°
2026-04-24 15:10 45.00414 26.44497 9976 ft 359 kts 175°
2026-04-24 15:11 44.98133 26.45192 9964 ft 314 kts 165°
2026-04-24 15:11 44.96180 26.46272 9965 ft 285 kts 156°
2026-04-24 15:11 44.94448 26.47440 9967 ft 277 kts 156°
2026-04-24 15:11 44.92677 26.48597 9972 ft 277 kts 156°
2026-04-24 15:12 44.90918 26.49648 9963 ft 272 kts 168°
2026-04-24 15:12 44.87594 26.48054 9732 ft 262 kts 226°
2026-04-24 15:12 44.86286 26.46249 8091 ft 258 kts 230°
2026-04-24 15:13 44.85102 26.44501 6588 ft 244 kts 230°
2026-04-24 15:13 44.83921 26.42976 5937 ft 218 kts 211°
2026-04-24 15:13 44.82411 26.42425 5619 ft 233 kts 184°
2026-04-24 15:13 44.80776 26.42669 5140 ft 245 kts 173°
2026-04-24 15:14 44.79107 26.43009 4675 ft 240 kts 174°
2026-04-24 15:14 44.77436 26.43298 4270 ft 239 kts 175°
2026-04-24 15:14 44.75792 26.43606 4015 ft 243 kts 174°
2026-04-24 15:14 44.74147 26.44017 3846 ft 235 kts 172°
2026-04-24 15:15 44.72510 26.44436 3603 ft 243 kts 172°
2026-04-24 15:15 44.70922 26.44848 3053 ft 230 kts 172°
2026-04-24 15:15 44.69351 26.45203 2642 ft 224 kts 174°
2026-04-24 15:15 44.67841 26.45491 2548 ft 218 kts 174°
2026-04-24 15:16 44.66331 26.45840 2336 ft 217 kts 173°
2026-04-24 15:16 44.64905 26.46206 2406 ft 204 kts 169°
2026-04-24 15:16 44.63497 26.46545 2313 ft 205 kts 184°
2026-04-24 15:16 44.62219 26.46159 1995 ft 176 kts 208°
2026-04-24 15:17 44.61319 26.45094 1840 ft 168 kts 238°
2026-04-24 15:17 44.60927 26.43513 1870 ft 181 kts 270°
2026-04-24 15:17 44.60990 26.41756 1877 ft 183 kts 258°
2026-04-24 15:17 44.60454 26.40118 1921 ft 188 kts 243°
2026-04-24 15:18 44.59828 26.38496 1962 ft 189 kts 237°
2026-04-24 15:18 44.58712 26.37548 1963 ft 199 kts 187°
2026-04-24 15:18 44.57403 26.38150 1985 ft 207 kts 140°
2026-04-24 15:18 44.56759 26.39927 1970 ft 211 kts 93°
2026-04-24 15:19 44.57178 26.41839 2023 ft 209 kts 49°
2026-04-24 15:19 44.58397 26.42795 2038 ft 203 kts
2026-04-24 15:19 44.59699 26.42288 2023 ft 196 kts 318°
2026-04-24 15:19 44.60356 26.40685 2024 ft 193 kts 278°
2026-04-24 15:20 44.60125 26.38859 2082 ft 190 kts 251°
2026-04-24 15:20 44.59861 26.37037 2109 ft 192 kts 264°
2026-04-24 15:20 44.59708 26.35169 2139 ft 194 kts 263°
2026-04-24 15:20 44.59553 26.33285 2170 ft 194 kts 264°
2026-04-24 15:21 44.59419 26.31394 2161 ft 196 kts 264°
2026-04-24 15:21 44.59262 26.29497 2208 ft 196 kts 265°
2026-04-24 15:21 44.59132 26.27592 2228 ft 196 kts 264°
2026-04-24 15:21 44.58973 26.25679 2077 ft 194 kts 264°
2026-04-24 15:22 44.58845 26.23876 1841 ft 181 kts 264°
2026-04-24 15:22 44.58706 26.22145 1641 ft 172 kts 264°
2026-04-24 15:22 44.58595 26.20631 1430 ft 146 kts 264°
2026-04-24 15:23 44.58394 26.18008 1048 ft 130 kts 264°
2026-04-24 15:23 44.58205 26.15526 738 ft 129 kts 263°
2026-04-24 15:23 44.58105 26.14225 555 ft 134 kts 263°
2026-04-24 15:24 44.57880 26.11356 317 ft 41 kts 264°
2026-04-24 15:25 44.57827 26.10642 317 ft 45 kts 265°
2026-04-24 15:25 44.57730 26.09994 316 ft 33 kts 239°
2026-04-24 15:26 44.57660 26.09858 317 ft 0 kts 235°
2026-04-24 15:30 44.57581 26.09830 317 ft 16 kts 176°
2026-04-24 15:31 44.57022 26.09876 317 ft 15 kts 242°
2026-04-24 15:32 44.56925 26.09399 317 ft 0 kts 173°